Tracking 32579 objects as of 16-Dec-2025
HD Live streaming from Space Station
objects crossing your sky now

XM-2

Track XM-2 now!
XM-2 is classified as:


NORAD ID: 26724
Int'l Code: 2001-012A
Perigee: 36,097.2 km
Apogee: 36,161.9 km
Inclination: 9.2 °
Period: 1,453.3 minutes
Semi major axis: 42500 km
RCS: 25.1188 m2 (large)
Launch date: March 18, 2001
Source: United States (US)
Launch site: SEA LAUNCH (SEAL)

100 channels of digital music uplinked in the X-band from one or more ground stations.
Your satellite tracking list
Your tracking list is empty




NASA's NSSDC Master Catalog

Two Line Element Set (TLE):
1 26724U 01012A   25349.48586537 -.00000233  00000-0  00000-0 0  9993
2 26724   9.1578  58.3817 0007604 158.8121 206.1080  0.99085733 40429
Source of the keplerian elements: AFSPC